Time,TemperatureF,DewpointF,PressureIn,WindDirection,WindDirectionDegrees,WindSpeedMPH,WindSpeedGustMPH,Humidity,HourlyPrecipIn,Conditions,Clouds,dailyrainin,SoftwareType,DateUTC
2013-08-17 00:00:00,60.7,54.5,27.96,North,0,0.0,0.0,80,0.00,,---,0.00,VWS V13.01,2013-08-17 07:00:00,
2013-08-17 00:03:00,61.9,55.3,27.96,WNW,300,0.0,0.0,79,0.00,,---,0.00,VWS V13.01,2013-08-17 07:03:00,
2013-08-17 00:04:00,60.7,54.8,27.96,WNW,300,0.0,0.0,81,0.00,,---,0.00,VWS V13.01,2013-08-17 07:04:00,
2013-08-17 00:05:00,60.7,54.8,27.96,WNW,300,0.0,0.0,81,0.00,,---,0.00,VWS V13.01,2013-08-17 07:05:00,
2013-08-17 00:06:00,60.7,54.8,27.96,WNW,300,0.0,1.0,81,0.00,,---,0.00,VWS V13.01,2013-08-17 07:06:00,
2013-08-17 00:07:00,60.7,54.8,27.96,WNW,300,1.0,3.0,81,0.00,,---,0.00,VWS V13.01,2013-08-17 07:07:00,
2013-08-17 00:08:00,61.9,55.3,27.96,WNW,300,0.0,0.0,79,0.00,,---,0.00,VWS V13.01,2013-08-17 07:08:00,
2013-08-17 00:13:00,61.9,55.3,27.96,WNW,300,0.0,0.0,79,0.00,,---,0.00,VWS V13.01,2013-08-17 07:13:00,
2013-08-17 00:18:00,62.0,55.4,27.96,WNW,300,0.0,0.0,79,0.00,,---,0.00,VWS V13.01,2013-08-17 07:18:00,
2013-08-17 00:23:00,62.0,55.1,27.96,WNW,300,0.0,0.0,78,0.00,,---,0.00,VWS V13.01,2013-08-17 07:23:00,
2013-08-17 00:28:00,61.8,54.9,27.96,WNW,300,0.0,0.0,78,0.00,,---,0.00,VWS V13.01,2013-08-17 07:28:00,
2013-08-17 00:33:00,61.6,54.7,27.96,WNW,300,0.0,0.0,78,0.00,,---,0.00,VWS V13.01,2013-08-17 07:33:00,
2013-08-17 00:38:00,61.5,54.9,27.96,WNW,300,0.0,0.0,79,0.00,,---,0.00,VWS V13.01,2013-08-17 07:38:00,
2013-08-17 00:43:00,61.2,55.0,27.96,WNW,300,0.0,0.0,80,0.00,,---,0.00,VWS V13.01,2013-08-17 07:43:00,
2013-08-17 00:48:00,61.0,54.8,27.96,WNW,300,0.0,0.0,80,0.00,,---,0.00,VWS V13.01,2013-08-17 07:48:00,
2013-08-17 00:53:00,60.9,55.0,27.96,WNW,300,0.0,0.0,81,0.00,,---,0.00,VWS V13.01,2013-08-17 07:53:00,
2013-08-17 00:58:00,60.8,54.6,27.96,WNW,300,0.0,0.0,80,0.00,,---,0.00,VWS V13.01,2013-08-17 07:58:00,
2013-08-17 01:07:00,60.7,54.5,27.96,North,0,0.0,0.0,80,0.00,,---,0.00,VWS V13.01,2013-08-17 08:07:00,
2013-08-17 01:12:00,60.7,54.8,27.96,WNW,300,0.0,3.0,81,0.00,,---,0.00,VWS V13.01,2013-08-17 08:12:00,
2013-08-17 01:17:00,60.7,55.2,27.96,WSW,252,0.0,4.0,82,0.00,,---,0.00,VWS V13.01,2013-08-17 08:17:00,
2013-08-17 01:22:00,60.7,55.2,27.96,WSW,240,0.0,4.0,82,0.00,,---,0.00,VWS V13.01,2013-08-17 08:22:00,
2013-08-17 01:27:00,60.7,55.2,27.96,West,279,0.0,4.0,82,0.00,,---,0.00,VWS V13.01,2013-08-17 08:27:00,
2013-08-17 01:32:00,60.7,55.2,27.96,WNW,283,1.0,4.0,82,0.00,,---,0.00,VWS V13.01,2013-08-17 08:32:00,
2013-08-17 01:37:00,60.5,55.3,27.96,WNW,283,0.0,6.0,83,0.00,,---,0.00,VWS V13.01,2013-08-17 08:37:00,
2013-08-17 01:42:00,60.4,55.2,27.96,West,280,0.0,6.0,83,0.00,,---,0.00,VWS V13.01,2013-08-17 08:42:00,
2013-08-17 01:47:00,60.3,55.1,27.96,West,281,0.0,6.0,83,0.00,,---,0.00,VWS V13.01,2013-08-17 08:47:00,
2013-08-17 01:52:00,60.1,54.9,27.96,SW,220,0.0,6.0,83,0.00,,---,0.00,VWS V13.01,2013-08-17 08:52:00,
2013-08-17 01:57:00,60.1,54.9,27.96,SW,221,0.0,6.0,83,0.00,,---,0.00,VWS V13.01,2013-08-17 08:57:00,
2013-08-17 02:02:00,60.0,54.8,27.96,WNW,287,1.0,6.0,83,0.00,,---,0.00,VWS V13.01,2013-08-17 09:02:00,
2013-08-17 02:07:00,59.9,54.7,27.96,WSW,238,2.0,5.0,83,0.00,,---,0.00,VWS V13.01,2013-08-17 09:07:00,
2013-08-17 02:12:00,60.0,54.8,27.96,WSW,240,1.0,5.0,83,0.00,,---,0.00,VWS V13.01,2013-08-17 09:12:00,
2013-08-17 02:16:00,60.0,54.8,27.96,West,266,0.0,5.0,83,0.00,,---,0.00,VWS V13.01,2013-08-17 09:16:00,
2013-08-17 02:21:00,60.0,54.8,27.96,SW,225,0.0,6.0,83,0.00,,---,0.00,VWS V13.01,2013-08-17 09:21:00,
2013-08-17 02:26:00,60.0,54.8,27.96,West,270,0.0,6.0,83,0.00,,---,0.00,VWS V13.01,2013-08-17 09:26:00,
2013-08-17 02:31:00,60.0,54.8,27.96,West,272,1.0,6.0,83,0.00,,---,0.00,VWS V13.01,2013-08-17 09:31:00,
2013-08-17 02:36:00,60.1,54.9,27.96,WNW,286,2.0,6.0,83,0.00,,---,0.00,VWS V13.01,2013-08-17 09:36:00,
2013-08-17 02:41:00,60.1,54.6,27.96,West,279,0.0,6.0,82,0.00,,---,0.00,VWS V13.01,2013-08-17 09:41:00,
2013-08-17 02:46:00,60.1,54.6,27.96,WNW,292,2.0,6.0,82,0.00,,---,0.00,VWS V13.01,2013-08-17 09:46:00,
2013-08-17 02:51:00,60.1,54.6,27.96,West,271,3.0,9.0,82,0.00,,---,0.00,VWS V13.01,2013-08-17 09:51:00,
2013-08-17 02:56:00,60.1,54.6,27.96,West,269,2.0,9.0,82,0.00,,---,0.00,VWS V13.01,2013-08-17 09:56:00,
2013-08-17 03:01:00,60.1,54.6,27.96,WSW,252,0.0,9.0,82,0.00,,---,0.00,VWS V13.01,2013-08-17 10:01:00,
2013-08-17 03:06:00,60.1,54.6,27.96,WSW,252,0.0,1.0,82,0.00,,---,0.00,VWS V13.01,2013-08-17 10:06:00,
2013-08-17 03:11:00,60.0,54.5,27.96,WSW,252,0.0,1.0,82,0.00,,---,0.00,VWS V13.01,2013-08-17 10:11:00,
2013-08-17 03:16:00,59.9,54.4,27.96,WSW,252,0.0,2.0,82,0.00,,---,0.00,VWS V13.01,2013-08-17 10:16:00,
2013-08-17 03:21:00,59.9,54.4,26.41,WSW,252,0.0,2.0,82,0.00,,---,0.00,VWS V13.01,2013-08-17 10:21:00,
2013-08-17 03:26:00,59.8,54.3,26.41,WSW,253,0.0,2.0,82,0.00,,---,0.00,VWS V13.01,2013-08-17 10:26:00,
2013-08-17 03:31:00,59.7,53.9,26.41,WSW,252,0.0,2.0,81,0.00,,---,0.00,VWS V13.01,2013-08-17 10:31:00,
2013-08-17 03:36:00,59.7,53.9,26.41,WSW,252,0.0,2.0,81,0.00,,---,0.00,VWS V13.01,2013-08-17 10:36:00,
2013-08-17 03:41:00,59.6,53.8,27.62,WSW,248,0.0,4.0,81,0.00,,---,0.00,VWS V13.01,2013-08-17 10:41:00,
2013-08-17 03:46:00,59.7,53.9,27.62,WSW,248,0.0,4.0,81,0.00,,---,0.00,VWS V13.01,2013-08-17 10:46:00,
2013-08-17 03:51:00,59.8,54.0,26.01,WSW,248,0.0,4.0,81,0.00,,---,0.00,VWS V13.01,2013-08-17 10:51:00,
2013-08-17 03:56:00,59.9,54.1,26.01,WSW,248,0.0,4.0,81,0.00,,---,0.00,VWS V13.01,2013-08-17 10:56:00,
2013-08-17 04:01:00,60.0,54.2,26.01,WSW,248,0.0,4.0,81,0.00,,---,0.00,VWS V13.01,2013-08-17 11:01:00,
2013-08-17 04:02:00,59.8,54.3,28.06,WSW,248,0.0,1.0,82,0.00,,---,0.00,VWS V13.01,2013-08-17 11:02:00,
2013-08-17 04:03:00,59.8,54.3,28.06,WSW,248,0.0,1.0,82,0.00,,---,0.00,VWS V13.01,2013-08-17 11:03:00,
2013-08-17 04:04:00,59.8,54.3,28.06,West,281,4.0,4.0,82,0.00,,---,0.00,VWS V13.01,2013-08-17 11:04:00,
2013-08-17 04:05:00,59.8,54.3,28.06,WNW,282,2.0,4.0,82,0.00,,---,0.00,VWS V13.01,2013-08-17 11:05:00,
2013-08-17 04:06:00,60.0,54.2,26.01,WSW,248,0.0,0.0,81,0.00,,---,0.00,VWS V13.01,2013-08-17 11:06:00,
2013-08-17 04:07:00,59.7,54.2,28.06,WNW,282,0.0,4.0,82,0.00,,---,0.00,VWS V13.01,2013-08-17 11:07:00,
2013-08-17 04:11:00,60.1,53.9,26.01,WSW,248,0.0,1.0,80,0.00,,---,0.00,VWS V13.01,2013-08-17 11:11:00,
2013-08-17 04:16:00,60.2,54.4,26.43,WSW,248,1.0,1.0,81,0.00,,---,0.00,VWS V13.01,2013-08-17 11:16:00,
2013-08-17 04:21:00,60.2,54.4,26.43,WSW,248,0.0,1.0,81,0.00,,---,0.00,VWS V13.01,2013-08-17 11:21:00,
2013-08-17 04:26:00,60.1,53.9,26.43,WSW,248,0.0,2.0,80,0.00,,---,0.00,VWS V13.01,2013-08-17 11:26:00,
2013-08-17 04:31:00,60.1,54.3,26.43,WSW,248,0.0,2.0,81,0.00,,---,0.00,VWS V13.01,2013-08-17 11:31:00,
2013-08-17 04:36:00,60.1,54.3,26.43,WSW,248,0.0,3.0,81,0.00,,---,0.00,VWS V13.01,2013-08-17 11:36:00,
2013-08-17 04:41:00,60.1,54.6,28.06,WSW,248,2.0,3.0,82,0.00,,---,0.00,VWS V13.01,2013-08-17 11:41:00,
2013-08-17 04:46:00,60.0,54.5,28.06,WSW,248,0.0,3.0,82,0.00,,---,0.00,VWS V13.01,2013-08-17 11:46:00,
2013-08-17 04:51:00,60.0,54.5,28.06,WSW,248,0.0,3.0,82,0.00,,---,0.00,VWS V13.01,2013-08-17 11:51:00,
2013-08-17 04:56:00,59.9,54.4,28.06,WSW,248,0.0,3.0,82,0.00,,---,0.00,VWS V13.01,2013-08-17 11:56:00,
2013-08-17 05:01:00,59.8,54.3,28.06,WSW,248,0.0,3.0,82,0.00,,---,0.00,VWS V13.01,2013-08-17 12:01:00,
2013-08-17 05:06:00,59.8,54.3,28.06,WSW,248,0.0,1.0,82,0.00,,---,0.00,VWS V13.01,2013-08-17 12:06:00,
2013-08-17 05:11:00,59.7,54.2,28.06,WNW,282,0.0,4.0,82,0.00,,---,0.00,VWS V13.01,2013-08-17 12:11:00,
2013-08-17 05:16:00,59.7,54.2,28.06,West,281,0.0,4.0,82,0.00,,---,0.00,VWS V13.01,2013-08-17 12:16:00,
2013-08-17 05:21:00,59.6,54.1,28.06,WNW,282,0.0,4.0,82,0.00,,---,0.00,VWS V13.01,2013-08-17 12:21:00,
2013-08-17 05:26:00,59.6,54.1,28.06,WNW,282,0.0,4.0,82,0.00,,---,0.00,VWS V13.01,2013-08-17 12:26:00,
2013-08-17 05:31:00,59.5,54.0,28.06,West,281,0.0,4.0,82,0.00,,---,0.00,VWS V13.01,2013-08-17 12:31:00,
2013-08-17 05:36:00,59.5,54.0,28.06,West,281,0.0,4.0,82,0.00,,---,0.00,VWS V13.01,2013-08-17 12:36:00,
2013-08-17 05:41:00,59.4,53.9,28.06,WNW,282,0.0,4.0,82,0.00,,---,0.00,VWS V13.01,2013-08-17 12:41:00,
2013-08-17 05:46:00,59.4,53.9,28.06,WNW,282,0.0,4.0,82,0.00,,---,0.00,VWS V13.01,2013-08-17 12:46:00,
2013-08-17 05:51:00,59.3,53.8,28.06,WNW,282,0.0,4.0,82,0.00,,---,0.00,VWS V13.01,2013-08-17 12:51:00,
2013-08-17 05:56:00,59.1,53.6,28.06,West,281,0.0,4.0,82,0.00,,---,0.00,VWS V13.01,2013-08-17 12:56:00,
2013-08-17 06:01:00,58.9,53.4,28.06,WNW,282,0.0,4.0,82,0.00,,---,0.00,VWS V13.01,2013-08-17 13:01:00,
2013-08-17 06:06:00,58.8,53.3,28.06,WNW,282,0.0,0.0,82,0.00,,---,0.00,VWS V13.01,2013-08-17 13:06:00,
2013-08-17 06:11:00,58.7,53.2,28.06,WNW,282,0.0,0.0,82,0.00,,---,0.00,VWS V13.01,2013-08-17 13:11:00,
2013-08-17 06:16:00,58.6,53.1,28.06,WNW,282,0.0,0.0,82,0.00,,---,0.00,VWS V13.01,2013-08-17 13:16:00,
2013-08-17 06:21:00,58.5,53.0,28.06,West,281,0.0,0.0,82,0.00,,---,0.00,VWS V13.01,2013-08-17 13:21:00,
2013-08-17 06:26:00,58.4,52.9,25.97,WNW,282,0.0,0.0,82,0.00,,---,0.00,VWS V13.01,2013-08-17 13:26:00,
2013-08-17 06:31:00,58.3,52.8,25.97,WNW,282,0.0,0.0,82,0.00,,---,0.00,VWS V13.01,2013-08-17 13:31:00,
2013-08-17 06:36:00,58.2,52.7,27.18,West,281,0.0,0.0,82,0.00,,---,0.00,VWS V13.01,2013-08-17 13:36:00,
2013-08-17 06:41:00,58.1,53.0,27.18,West,281,0.0,0.0,83,0.00,,---,0.00,VWS V13.01,2013-08-17 13:41:00,
2013-08-17 06:46:00,58.0,52.9,27.18,West,281,0.0,0.0,83,0.00,,---,0.00,VWS V13.01,2013-08-17 13:46:00,
2013-08-17 06:51:00,57.9,52.8,27.18,WNW,282,0.0,0.0,83,0.00,,---,0.00,VWS V13.01,2013-08-17 13:51:00,
2013-08-17 06:56:00,57.9,52.8,27.18,WNW,282,0.0,0.0,83,0.00,,---,0.00,VWS V13.01,2013-08-17 13:56:00,
2013-08-17 07:01:00,57.8,52.7,27.18,WNW,282,0.0,0.0,83,0.00,,---,0.00,VWS V13.01,2013-08-17 14:01:00,
2013-08-17 07:06:00,57.9,52.8,29.59,WNW,282,0.0,0.0,83,0.00,,---,0.00,VWS V13.01,2013-08-17 14:06:00,
2013-08-17 07:11:00,57.9,52.8,28.39,WNW,282,0.0,0.0,83,0.00,,---,0.00,VWS V13.01,2013-08-17 14:11:00,
2013-08-17 07:16:00,57.9,52.8,28.39,WNW,282,0.0,0.0,83,0.00,,---,0.00,VWS V13.01,2013-08-17 14:16:00,
2013-08-17 07:21:00,57.9,52.8,28.39,WNW,282,0.0,0.0,83,0.00,,---,0.00,VWS V13.01,2013-08-17 14:21:00,
2013-08-17 07:26:00,57.9,52.8,28.39,West,281,0.0,0.0,83,0.00,,---,0.00,VWS V13.01,2013-08-17 14:26:00,
2013-08-17 07:31:00,58.1,53.3,32.01,WNW,282,0.0,0.0,84,0.00,,---,0.00,VWS V13.01,2013-08-17 14:31:00,
2013-08-17 07:36:00,58.2,53.4,32.01,WNW,282,0.0,0.0,84,0.00,,---,0.00,VWS V13.01,2013-08-17 14:36:00,
2013-08-17 07:41:00,58.4,53.6,25.97,WNW,282,0.0,0.0,84,0.00,,---,0.00,VWS V13.01,2013-08-17 14:41:00,
2013-08-17 07:46:00,58.6,53.5,30.80,West,281,0.0,0.0,83,0.00,,---,0.00,VWS V13.01,2013-08-17 14:46:00,
2013-08-17 07:51:00,58.7,53.6,30.80,WNW,282,0.0,0.0,83,0.00,,---,0.00,VWS V13.01,2013-08-17 14:51:00,
2013-08-17 07:56:00,58.8,53.7,32.01,WNW,282,0.0,0.0,83,0.00,,---,0.00,VWS V13.01,2013-08-17 14:56:00,
2013-08-17 08:01:00,59.0,53.8,28.39,WNW,282,0.0,0.0,83,0.00,,---,0.00,VWS V13.01,2013-08-17 15:01:00,
2013-08-17 08:06:00,59.5,54.7,28.39,WNW,282,0.0,0.0,84,0.00,,---,0.00,VWS V13.01,2013-08-17 15:06:00,
2013-08-17 08:11:00,60.0,54.5,28.39,West,281,0.0,1.0,82,0.00,,---,0.00,VWS V13.01,2013-08-17 15:11:00,
2013-08-17 08:16:00,60.7,54.8,25.97,WNW,282,0.0,2.0,81,0.00,,---,0.00,VWS V13.01,2013-08-17 15:16:00,
2013-08-17 08:21:00,61.5,55.6,25.97,SSW,211,0.0,2.0,81,0.00,,---,0.00,VWS V13.01,2013-08-17 15:21:00,
2013-08-17 08:26:00,62.1,55.9,25.97,SSW,211,0.0,2.0,80,0.00,,---,0.00,VWS V13.01,2013-08-17 15:26:00,
2013-08-17 08:31:00,62.5,55.6,27.18,SSW,206,0.0,2.0,78,0.00,,---,0.00,VWS V13.01,2013-08-17 15:31:00,
2013-08-17 08:36:00,63.0,55.7,27.18,SSW,192,2.0,3.0,77,0.00,,---,0.00,VWS V13.01,2013-08-17 15:36:00,
2013-08-17 08:41:00,63.4,55.3,27.18,West,281,1.0,4.0,75,0.00,,---,0.00,VWS V13.01,2013-08-17 15:41:00,
2013-08-17 08:46:00,63.8,56.1,27.18,West,281,0.0,4.0,76,0.00,,---,0.00,VWS V13.01,2013-08-17 15:46:00,
2013-08-17 08:51:00,64.4,56.3,27.18,SSW,211,0.0,4.0,75,0.00,,---,0.00,VWS V13.01,2013-08-17 15:51:00,
2013-08-17 08:56:00,65.4,56.5,27.18,SSW,211,0.0,4.0,73,0.00,,---,0.00,VWS V13.01,2013-08-17 15:56:00,
2013-08-17 09:01:00,66.3,56.6,27.18,SSW,196,0.0,4.0,71,0.00,,---,0.00,VWS V13.01,2013-08-17 16:01:00,
2013-08-17 09:06:00,67.2,56.7,28.43,SSW,196,0.0,0.0,69,0.00,,---,0.00,VWS V13.01,2013-08-17 16:06:00,
2013-08-17 09:11:00,67.9,56.5,28.43,SSW,196,0.0,0.0,67,0.00,,---,0.00,VWS V13.01,2013-08-17 16:11:00,
2013-08-17 09:16:00,68.5,56.7,28.82,SSW,196,0.0,1.0,66,0.00,,---,0.00,VWS V13.01,2013-08-17 16:16:00,
2013-08-17 09:21:00,68.6,56.8,28.82,SSW,197,0.0,1.0,66,0.00,,---,0.00,VWS V13.01,2013-08-17 16:21:00,
2013-08-17 09:26:00,68.5,57.1,28.82,SSW,197,1.0,2.0,67,0.00,,---,0.00,VWS V13.01,2013-08-17 16:26:00,
2013-08-17 09:31:00,68.3,57.3,27.22,WNW,287,0.0,6.0,68,0.00,,---,0.00,VWS V13.01,2013-08-17 16:31:00,
2013-08-17 09:36:00,67.7,57.2,27.22,WNW,287,0.0,6.0,69,0.00,,---,0.00,VWS V13.01,2013-08-17 16:36:00,
2013-08-17 09:41:00,67.2,57.1,27.22,WNW,287,0.0,6.0,70,0.00,,---,0.00,VWS V13.01,2013-08-17 16:41:00,
2013-08-17 09:46:00,67.0,56.9,27.22,WNW,287,0.0,6.0,70,0.00,,---,0.00,VWS V13.01,2013-08-17 16:46:00,
2013-08-17 09:51:00,66.8,57.5,27.22,WNW,287,0.0,6.0,72,0.00,,---,0.00,VWS V13.01,2013-08-17 16:51:00,
2013-08-17 09:56:00,67.0,57.7,27.22,SSE,157,0.0,6.0,72,0.00,,---,0.00,VWS V13.01,2013-08-17 16:56:00,
2013-08-17 10:01:00,67.4,58.1,27.22,South,186,3.0,6.0,72,0.00,,---,0.00,VWS V13.01,2013-08-17 17:01:00,
2013-08-17 10:06:00,68.1,58.3,27.22,SSE,161,0.0,5.0,71,0.00,,---,0.00,VWS V13.01,2013-08-17 17:06:00,
2013-08-17 10:11:00,68.8,58.2,27.22,South,169,0.0,6.0,69,0.00,,---,0.00,VWS V13.01,2013-08-17 17:11:00,
2013-08-17 10:16:00,69.0,58.0,27.22,WNW,288,0.0,6.0,68,0.00,,---,0.00,VWS V13.01,2013-08-17 17:16:00,
2013-08-17 10:21:00,68.5,58.3,27.22,WNW,292,3.0,6.0,70,0.00,,---,0.00,VWS V13.01,2013-08-17 17:21:00,
2013-08-17 10:26:00,68.1,58.0,27.22,SW,219,2.0,6.0,70,0.00,,---,0.00,VWS V13.01,2013-08-17 17:26:00,
2013-08-17 10:31:00,68.0,57.9,27.22,SW,230,0.0,6.0,70,0.00,,---,0.00,VWS V13.01,2013-08-17 17:31:00,
2013-08-17 10:36:00,68.2,58.0,27.22,West,280,3.0,6.0,70,0.00,,---,0.00,VWS V13.01,2013-08-17 17:36:00,
2013-08-17 10:41:00,68.5,57.9,27.22,West,265,0.0,6.0,69,0.00,,---,0.00,VWS V13.01,2013-08-17 17:41:00,
2013-08-17 10:46:00,69.1,58.1,18.26,WNW,298,0.0,6.0,68,0.00,,---,0.00,VWS V13.01,2013-08-17 17:46:00,
2013-08-17 10:51:00,69.9,58.0,18.26,SW,229,0.0,6.0,66,0.00,,---,0.00,VWS V13.01,2013-08-17 17:51:00,
2013-08-17 10:56:00,71.1,58.3,18.26,SW,220,1.0,6.0,64,0.00,,---,0.00,VWS V13.01,2013-08-17 17:56:00,
2013-08-17 11:01:00,72.2,58.9,18.26,WSW,246,1.0,6.0,63,0.00,,---,0.00,VWS V13.01,2013-08-17 18:01:00,
2013-08-17 11:06:00,73.3,58.1,18.26,SW,223,0.0,6.0,59,0.00,,---,0.00,VWS V13.01,2013-08-17 18:06:00,
2013-08-17 11:11:00,74.3,59.1,28.06,SSE,167,1.0,7.0,59,0.00,,---,0.00,VWS V13.01,2013-08-17 18:11:00,
2013-08-17 11:16:00,75.3,59.5,28.06,WSW,254,0.0,7.0,58,0.00,,---,0.00,VWS V13.01,2013-08-17 18:16:00,
2013-08-17 11:21:00,75.9,59.1,28.06,West,266,3.0,7.0,56,0.00,,---,0.00,VWS V13.01,2013-08-17 18:21:00,
2013-08-17 11:26:00,75.9,59.1,28.06,SW,236,2.0,7.0,56,0.00,,---,0.00,VWS V13.01,2013-08-17 18:26:00,
2013-08-17 11:31:00,76.0,58.7,28.06,West,276,0.0,7.0,55,0.00,,---,0.00,VWS V13.01,2013-08-17 18:31:00,
2013-08-17 11:36:00,76.2,58.9,28.06,West,262,1.0,7.0,55,0.00,,---,0.00,VWS V13.01,2013-08-17 18:36:00,
2013-08-17 11:41:00,76.5,58.6,28.06,SW,223,0.0,7.0,54,0.00,,---,0.00,VWS V13.01,2013-08-17 18:41:00,
2013-08-17 11:46:00,76.9,59.5,28.06,WSW,237,2.0,7.0,55,0.00,,---,0.00,VWS V13.01,2013-08-17 18:46:00,
2013-08-17 11:51:00,77.1,59.2,28.06,SW,229,1.0,7.0,54,0.00,,---,0.00,VWS V13.01,2013-08-17 18:51:00,
2013-08-17 11:56:00,77.0,59.6,28.06,SW,232,0.0,7.0,55,0.00,,---,0.00,VWS V13.01,2013-08-17 18:56:00,
2013-08-17 12:01:00,77.1,59.7,28.06,SW,228,2.0,7.0,55,0.00,,---,0.00,VWS V13.01,2013-08-17 19:01:00,
2013-08-17 12:06:00,77.1,59.7,27.22,SW,234,6.0,9.0,55,0.00,,---,0.00,VWS V13.01,2013-08-17 19:06:00,
2013-08-17 12:11:00,76.9,59.5,27.22,SSW,207,1.0,12.0,55,0.00,,---,0.00,VWS V13.01,2013-08-17 19:11:00,
2013-08-17 12:16:00,76.6,59.2,27.22,SW,234,5.0,12.0,55,0.00,,---,0.00,VWS V13.01,2013-08-17 19:16:00,
2013-08-17 12:21:00,76.3,59.5,26.41,SW,235,3.0,12.0,56,0.00,,---,0.00,VWS V13.01,2013-08-17 19:21:00,
2013-08-17 12:26:00,75.6,59.3,26.41,WSW,254,0.0,12.0,57,0.00,,---,0.00,VWS V13.01,2013-08-17 19:26:00,
2013-08-17 12:31:00,75.1,59.3,26.41,SSW,192,0.0,12.0,58,0.00,,---,0.00,VWS V13.01,2013-08-17 19:31:00,
2013-08-17 12:36:00,74.5,58.8,26.41,SW,234,4.0,12.0,58,0.00,,---,0.00,VWS V13.01,2013-08-17 19:36:00,
2013-08-17 12:41:00,74.0,58.3,26.41,SSW,211,2.0,12.0,58,0.00,,---,0.00,VWS V13.01,2013-08-17 19:41:00,
2013-08-17 12:46:00,73.8,58.6,26.41,WNW,293,0.0,12.0,59,0.00,,---,0.00,VWS V13.01,2013-08-17 19:46:00,
2013-08-17 12:51:00,73.7,58.5,26.41,WSW,238,0.0,12.0,59,0.00,,---,0.00,VWS V13.01,2013-08-17 19:51:00,
2013-08-17 12:56:00,73.9,58.7,26.41,SSW,199,2.0,12.0,59,0.00,,---,0.00,VWS V13.01,2013-08-17 19:56:00,
2013-08-17 13:01:00,74.2,58.5,26.41,SSW,199,3.0,12.0,58,0.00,,---,0.00,VWS V13.01,2013-08-17 20:01:00,
2013-08-17 13:06:00,74.8,59.0,26.41,SW,232,1.0,7.0,58,0.00,,---,0.00,VWS V13.01,2013-08-17 20:06:00,
2013-08-17 13:11:00,75.4,59.1,26.41,SW,219,0.0,7.0,57,0.00,,---,0.00,VWS V13.01,2013-08-17 20:11:00,
2013-08-17 13:16:00,76.0,59.2,26.41,SW,229,6.0,7.0,56,0.00,,---,0.00,VWS V13.01,2013-08-17 20:16:00,
2013-08-17 13:21:00,77.0,59.1,26.41,West,281,4.0,7.0,54,0.00,,---,0.00,VWS V13.01,2013-08-17 20:21:00,
2013-08-17 13:26:00,78.1,58.5,26.41,WSW,242,2.0,10.0,51,0.00,,---,0.00,VWS V13.01,2013-08-17 20:26:00,
2013-08-17 13:31:00,79.2,58.4,26.41,WNW,283,0.0,10.0,49,0.00,,---,0.00,VWS V13.01,2013-08-17 20:31:00,
2013-08-17 13:36:00,80.3,57.0,26.41,WNW,290,2.0,10.0,45,0.00,,---,0.00,VWS V13.01,2013-08-17 20:36:00,
2013-08-17 13:41:00,81.4,56.8,26.41,WNW,290,2.0,10.0,43,0.00,,---,0.00,VWS V13.01,2013-08-17 20:41:00,
2013-08-17 13:46:00,81.8,56.5,26.41,NW,310,0.0,10.0,42,0.00,,---,0.00,VWS V13.01,2013-08-17 20:46:00,
2013-08-17 13:51:00,82.2,56.2,26.41,WNW,296,0.0,10.0,41,0.00,,---,0.00,VWS V13.01,2013-08-17 20:51:00,
2013-08-17 13:56:00,82.2,56.2,26.41,WNW,292,3.0,10.0,41,0.00,,---,0.00,VWS V13.01,2013-08-17 20:56:00,
2013-08-17 14:01:00,82.2,56.8,26.41,SW,223,4.0,12.0,42,0.00,,---,0.00,VWS V13.01,2013-08-17 21:01:00,
2013-08-17 14:06:00,82.3,56.9,26.41,WNW,302,4.0,11.0,42,0.00,,---,0.00,VWS V13.01,2013-08-17 21:06:00,
2013-08-17 14:11:00,81.6,57.0,26.41,West,275,10.0,12.0,43,0.00,,---,0.00,VWS V13.01,2013-08-17 21:11:00,
2013-08-17 14:16:00,81.2,57.2,26.41,NW,310,2.0,12.0,44,0.00,,---,0.00,VWS V13.01,2013-08-17 21:16:00,
2013-08-17 14:21:00,81.5,57.5,26.41,West,281,7.0,12.0,44,0.00,,---,0.00,VWS V13.01,2013-08-17 21:21:00,
2013-08-17 14:26:00,81.5,56.9,26.41,West,273,3.0,12.0,43,0.00,,---,0.00,VWS V13.01,2013-08-17 21:26:00,
2013-08-17 14:31:00,81.2,57.2,26.41,WNW,284,6.0,12.0,44,0.00,,---,0.00,VWS V13.01,2013-08-17 21:31:00,
2013-08-17 14:36:00,81.5,57.5,26.41,SSW,213,5.0,12.0,44,0.00,,---,0.00,VWS V13.01,2013-08-17 21:36:00,
2013-08-17 14:41:00,81.9,57.2,26.41,WNW,292,3.0,12.0,43,0.00,,---,0.00,VWS V13.01,2013-08-17 21:41:00,
2013-08-17 14:46:00,81.9,57.2,26.41,SSW,211,1.0,12.0,43,0.00,,---,0.00,VWS V13.01,2013-08-17 21:46:00,
2013-08-17 14:51:00,82.0,57.3,26.41,WNW,290,1.0,12.0,43,0.00,,---,0.00,VWS V13.01,2013-08-17 21:51:00,
2013-08-17 14:56:00,82.6,56.5,26.41,WNW,299,2.0,12.0,41,0.00,,---,0.00,VWS V13.01,2013-08-17 21:56:00,
2013-08-17 15:01:00,83.0,56.2,25.71,West,277,4.0,12.0,40,0.00,,---,0.00,VWS V13.01,2013-08-17 22:01:00,
2013-08-17 15:06:00,82.6,56.5,25.71,WNW,292,3.0,6.0,41,0.00,,---,0.00,VWS V13.01,2013-08-17 22:06:00,
2013-08-17 15:11:00,82.3,56.3,25.71,NNW,333,0.0,12.0,41,0.00,,---,0.00,VWS V13.01,2013-08-17 22:11:00,
2013-08-17 15:16:00,82.1,56.1,25.71,SW,226,2.0,12.0,41,0.00,,---,0.00,VWS V13.01,2013-08-17 22:16:00,
2013-08-17 15:21:00,82.0,56.0,25.71,West,276,7.0,12.0,41,0.00,,---,0.00,VWS V13.01,2013-08-17 22:21:00,
2013-08-17 15:26:00,81.5,55.5,25.71,NW,314,3.0,16.0,41,0.00,,---,0.00,VWS V13.01,2013-08-17 22:26:00,
2013-08-17 15:31:00,80.8,55.6,25.71,WSW,248,4.0,16.0,42,0.00,,---,0.00,VWS V13.01,2013-08-17 22:31:00,
2013-08-17 15:36:00,80.4,55.9,25.71,SW,233,0.0,16.0,43,0.00,,---,0.00,VWS V13.01,2013-08-17 22:36:00,
2013-08-17 15:41:00,80.5,56.0,25.71,WSW,244,2.0,16.0,43,0.00,,---,0.00,VWS V13.01,2013-08-17 22:41:00,
2013-08-17 15:46:00,80.2,55.7,25.71,NW,307,1.0,16.0,43,0.00,,---,0.00,VWS V13.01,2013-08-17 22:46:00,
2013-08-17 15:51:00,80.5,56.0,25.71,WNW,296,3.0,16.0,43,0.00,,---,0.00,VWS V13.01,2013-08-17 22:51:00,
2013-08-17 15:56:00,80.9,56.3,25.71,NW,310,5.0,16.0,43,0.00,,---,0.00,VWS V13.01,2013-08-17 22:56:00,
2013-08-17 16:01:00,81.4,56.8,25.71,West,279,0.0,16.0,43,0.00,,---,0.00,VWS V13.01,2013-08-17 23:01:00,
2013-08-17 16:06:00,81.6,56.3,25.71,NW,314,2.0,9.0,42,0.00,,---,0.00,VWS V13.01,2013-08-17 23:06:00,
2013-08-17 16:11:00,81.4,56.8,25.71,WNW,296,7.0,11.0,43,0.00,,---,0.00,VWS V13.01,2013-08-17 23:11:00,
2013-08-17 16:16:00,81.6,57.0,25.71,SW,215,4.0,11.0,43,0.00,,---,0.00,VWS V13.01,2013-08-17 23:16:00,
2013-08-17 16:21:00,81.8,57.8,25.71,WNW,292,7.0,12.0,44,0.00,,---,0.00,VWS V13.01,2013-08-17 23:21:00,
2013-08-17 16:26:00,81.9,57.9,25.71,NW,313,2.0,12.0,44,0.00,,---,0.00,VWS V13.01,2013-08-17 23:26:00,
2013-08-17 16:31:00,82.1,58.0,25.71,WNW,298,7.0,12.0,44,0.00,,---,0.00,VWS V13.01,2013-08-17 23:31:00,
2013-08-17 16:36:00,81.9,58.5,25.71,West,272,5.0,12.0,45,0.00,,---,0.00,VWS V13.01,2013-08-17 23:36:00,
2013-08-17 16:41:00,82.1,59.3,25.71,West,273,1.0,12.0,46,0.00,,---,0.00,VWS V13.01,2013-08-17 23:41:00,
2013-08-17 16:46:00,82.3,59.5,25.71,SW,228,3.0,12.0,46,0.00,,---,0.00,VWS V13.01,2013-08-17 23:46:00,
2013-08-17 16:51:00,82.9,59.4,25.71,WSW,252,2.0,12.0,45,0.00,,---,0.00,VWS V13.01,2013-08-17 23:51:00,
2013-08-17 16:55:00,82.7,59.2,25.71,WSW,256,5.0,12.0,45,0.00,,---,0.00,VWS V13.01,2013-08-17 23:55:00,
2013-08-17 17:00:00,81.6,58.8,25.71,WNW,298,7.0,14.0,46,0.00,,---,0.00,VWS V13.01,2013-08-18 00:00:00,
2013-08-17 17:05:00,80.8,59.3,25.71,WSW,237,3.0,14.0,48,0.00,,---,0.00,VWS V13.01,2013-08-18 00:05:00,
2013-08-17 17:10:00,80.7,59.2,25.71,West,280,9.0,14.0,48,0.00,,---,0.00,VWS V13.01,2013-08-18 00:10:00,
2013-08-17 17:15:00,80.5,59.0,25.71,West,280,4.0,14.0,48,0.00,,---,0.00,VWS V13.01,2013-08-18 00:15:00,
2013-08-17 17:20:00,80.0,59.1,25.71,WSW,244,5.0,14.0,49,0.00,,---,0.00,VWS V13.01,2013-08-18 00:20:00,
2013-08-17 17:25:00,79.9,59.0,25.71,West,279,3.0,14.0,49,0.00,,---,0.00,VWS V13.01,2013-08-18 00:25:00,
2013-08-17 17:30:00,79.8,59.0,25.71,WNW,287,5.0,14.0,49,0.00,,---,0.00,VWS V13.01,2013-08-18 00:30:00,
2013-08-17 17:35:00,79.6,59.3,25.71,WSW,237,3.0,14.0,50,0.00,,---,0.00,VWS V13.01,2013-08-18 00:35:00,
2013-08-17 17:40:00,80.3,59.4,25.71,WNW,284,7.0,14.0,49,0.00,,---,0.00,VWS V13.01,2013-08-18 00:40:00,
2013-08-17 17:45:00,79.9,59.0,25.71,WNW,292,2.0,14.0,49,0.00,,---,0.00,VWS V13.01,2013-08-18 00:45:00,
2013-08-17 17:50:00,79.4,59.2,25.71,NW,306,4.0,15.0,50,0.00,,---,0.00,VWS V13.01,2013-08-18 00:50:00,
2013-08-17 17:55:00,78.9,59.2,25.71,West,281,10.0,15.0,51,0.00,,---,0.00,VWS V13.01,2013-08-18 00:55:00,
2013-08-17 18:00:00,78.8,59.2,25.71,NW,313,2.0,15.0,51,0.00,,---,0.00,VWS V13.01,2013-08-18 01:00:00,
2013-08-17 18:05:00,78.9,58.7,25.71,West,267,9.0,9.0,50,0.00,,---,0.00,VWS V13.01,2013-08-18 01:05:00,
2013-08-17 18:10:00,78.8,58.6,25.71,WSW,253,4.0,13.0,50,0.00,,---,0.00,VWS V13.01,2013-08-18 01:10:00,
2013-08-17 18:15:00,78.9,58.7,25.71,SW,233,2.0,13.0,50,0.00,,---,0.00,VWS V13.01,2013-08-18 01:15:00,
2013-08-17 18:20:00,79.1,58.9,25.71,WNW,290,3.0,13.0,50,0.00,,---,0.00,VWS V13.01,2013-08-18 01:20:00,
2013-08-17 18:25:00,79.3,59.1,25.71,SW,233,2.0,13.0,50,0.00,,---,0.00,VWS V13.01,2013-08-18 01:25:00,
2013-08-17 18:30:00,79.1,58.9,25.71,SW,223,1.0,13.0,50,0.00,,---,0.00,VWS V13.01,2013-08-18 01:30:00,
2013-08-17 18:35:00,79.1,58.9,25.71,WNW,287,6.0,13.0,50,0.00,,---,0.00,VWS V13.01,2013-08-18 01:35:00,
2013-08-17 18:40:00,78.5,58.3,25.71,West,266,0.0,13.0,50,0.00,,---,0.00,VWS V13.01,2013-08-18 01:40:00,
2013-08-17 18:45:00,77.5,58.0,25.71,West,273,11.0,13.0,51,0.00,,---,0.00,VWS V13.01,2013-08-18 01:45:00,
2013-08-17 18:50:00,76.7,58.3,25.71,WNW,286,4.0,13.0,53,0.00,,---,0.00,VWS V13.01,2013-08-18 01:50:00,
2013-08-17 18:55:00,76.5,58.1,25.71,WNW,286,1.0,13.0,53,0.00,,---,0.00,VWS V13.01,2013-08-18 01:55:00,
2013-08-17 19:00:00,76.4,58.5,25.71,WNW,286,2.0,13.0,54,0.00,,---,0.00,VWS V13.01,2013-08-18 02:00:00,
2013-08-17 19:05:00,76.4,58.5,25.71,SW,230,1.0,4.0,54,0.00,,---,0.00,VWS V13.01,2013-08-18 02:05:00,
2013-08-17 19:10:00,76.3,57.9,25.71,WSW,253,0.0,5.0,53,0.00,,---,0.00,VWS V13.01,2013-08-18 02:10:00,
2013-08-17 19:15:00,76.1,58.3,25.71,SW,222,0.0,6.0,54,0.00,,---,0.00,VWS V13.01,2013-08-18 02:15:00,
2013-08-17 19:20:00,76.1,58.3,25.71,SSW,211,0.0,6.0,54,0.00,,---,0.00,VWS V13.01,2013-08-18 02:20:00,
2013-08-17 19:25:00,75.8,58.0,25.71,West,281,3.0,7.0,54,0.00,,---,0.00,VWS V13.01,2013-08-18 02:25:00,
2013-08-17 19:30:00,75.1,57.8,25.71,West,268,0.0,10.0,55,0.00,,---,0.00,VWS V13.01,2013-08-18 02:30:00,
2013-08-17 19:35:00,74.4,57.7,25.71,SW,233,1.0,10.0,56,0.00,,---,0.00,VWS V13.01,2013-08-18 02:35:00,
2013-08-17 19:40:00,73.8,57.6,25.71,West,279,0.0,10.0,57,0.00,,---,0.00,VWS V13.01,2013-08-18 02:40:00,
2013-08-17 19:45:00,73.0,57.4,25.71,WSW,237,2.0,10.0,58,0.00,,---,0.00,VWS V13.01,2013-08-18 02:45:00,
2013-08-17 19:50:00,72.2,57.1,25.71,West,270,5.0,11.0,59,0.00,,---,0.00,VWS V13.01,2013-08-18 02:50:00,
2013-08-17 19:55:00,71.3,57.2,25.71,WSW,244,4.0,13.0,61,0.00,,---,0.00,VWS V13.01,2013-08-18 02:55:00,
2013-08-17 19:57:00,68.2,56.8,25.71,West,281,1.0,15.0,67,0.00,,---,0.00,VWS V13.01,2013-08-18 02:57:00,
2013-08-17 19:58:00,68.2,56.8,25.71,West,281,3.0,15.0,67,0.00,,---,0.00,VWS V13.01,2013-08-18 02:58:00,
2013-08-17 19:59:00,68.2,56.8,25.71,WSW,254,2.0,15.0,67,0.00,,---,0.00,VWS V13.01,2013-08-18 02:59:00,
2013-08-17 20:00:00,70.7,57.1,25.71,WSW,241,4.0,13.0,62,0.00,,---,0.00,VWS V13.01,2013-08-18 03:00:00,
2013-08-17 20:01:00,68.1,57.2,25.71,SW,231,4.0,6.0,68,0.00,,---,0.00,VWS V13.01,2013-08-18 03:01:00,
2013-08-17 20:02:00,68.1,57.2,25.71,WNW,287,1.0,9.0,68,0.00,,---,0.00,VWS V13.01,2013-08-18 03:02:00,
2013-08-17 20:05:00,70.4,57.2,25.71,SSW,197,1.0,5.0,63,0.00,,---,0.00,VWS V13.01,2013-08-18 03:05:00,
2013-08-17 20:10:00,70.0,56.8,25.71,West,260,4.0,10.0,63,0.00,,---,0.00,VWS V13.01,2013-08-18 03:10:00,
2013-08-17 20:15:00,69.7,57.0,25.71,West,277,4.0,11.0,64,0.00,,---,0.00,VWS V13.01,2013-08-18 03:15:00,
2013-08-17 20:20:00,69.5,56.8,25.71,WNW,303,5.0,11.0,64,0.00,,---,0.00,VWS V13.01,2013-08-18 03:20:00,
2013-08-17 20:25:00,69.4,56.7,25.71,WSW,251,2.0,11.0,64,0.00,,---,0.00,VWS V13.01,2013-08-18 03:25:00,
2013-08-17 20:30:00,69.5,56.8,25.71,SW,232,1.0,11.0,64,0.00,,---,0.00,VWS V13.01,2013-08-18 03:30:00,
2013-08-17 20:35:00,69.3,57.0,25.71,SW,231,10.0,12.0,65,0.00,,---,0.00,VWS V13.01,2013-08-18 03:35:00,
2013-08-17 20:40:00,68.9,57.1,25.71,NW,310,2.0,12.0,66,0.00,,---,0.00,VWS V13.01,2013-08-18 03:40:00,
2013-08-17 20:45:00,68.6,56.8,25.71,NW,314,1.0,15.0,66,0.00,,---,0.00,VWS V13.01,2013-08-18 03:45:00,
2013-08-17 20:50:00,68.4,56.6,25.71,WSW,238,0.0,15.0,66,0.00,,---,0.00,VWS V13.01,2013-08-18 03:50:00,
2013-08-17 20:55:00,68.4,57.0,25.71,West,269,4.0,15.0,67,0.00,,---,0.00,VWS V13.01,2013-08-18 03:55:00,
2013-08-17 21:00:00,68.2,56.8,25.71,WSW,245,1.0,15.0,67,0.00,,---,0.00,VWS V13.01,2013-08-18 04:00:00,
2013-08-17 21:03:00,68.2,56.8,25.71,WSW,250,4.0,6.0,67,0.00,,---,0.00,VWS V13.01,2013-08-18 04:03:00,
2013-08-17 21:08:00,67.9,57.4,25.71,SW,233,0.0,9.0,69,0.00,,---,0.00,VWS V13.01,2013-08-18 04:08:00,
2013-08-17 21:13:00,67.7,58.4,25.71,WNW,291,0.0,9.0,72,0.00,,---,0.00,VWS V13.01,2013-08-18 04:13:00,
2013-08-17 21:18:00,67.5,58.2,25.71,WNW,292,2.0,9.0,72,0.00,,---,0.00,VWS V13.01,2013-08-18 04:18:00,
2013-08-17 21:23:00,67.1,58.2,25.71,WNW,291,0.0,9.0,73,0.00,,---,0.00,VWS V13.01,2013-08-18 04:23:00,
2013-08-17 21:28:00,66.7,58.2,25.71,SSW,209,2.0,9.0,74,0.00,,---,0.00,VWS V13.01,2013-08-18 04:28:00,
2013-08-17 21:33:00,66.4,57.9,25.71,SW,214,0.0,9.0,74,0.00,,---,0.00,VWS V13.01,2013-08-18 04:33:00,
2013-08-17 21:38:00,66.3,58.2,25.71,SW,214,0.0,9.0,75,0.00,,---,0.00,VWS V13.01,2013-08-18 04:38:00,
2013-08-17 21:43:00,66.1,58.0,25.71,SW,215,0.0,9.0,75,0.00,,---,0.00,VWS V13.01,2013-08-18 04:43:00,
2013-08-17 21:48:00,66.0,57.9,25.71,SW,214,1.0,9.0,75,0.00,,---,0.00,VWS V13.01,2013-08-18 04:48:00,
2013-08-17 21:53:00,65.7,57.9,25.71,SW,214,0.0,9.0,76,0.00,,---,0.00,VWS V13.01,2013-08-18 04:53:00,
2013-08-17 21:58:00,65.5,57.7,25.71,SW,215,0.0,9.0,76,0.00,,---,0.00,VWS V13.01,2013-08-18 04:58:00,
2013-08-17 22:03:00,65.5,57.7,25.71,SW,215,0.0,9.0,76,0.00,,---,0.00,VWS V13.01,2013-08-18 05:03:00,
2013-08-17 22:08:00,65.4,57.3,25.71,SW,215,1.0,1.0,75,0.00,,---,0.00,VWS V13.01,2013-08-18 05:08:00,
2013-08-17 22:13:00,65.2,57.1,25.71,SW,214,0.0,1.0,75,0.00,,---,0.00,VWS V13.01,2013-08-18 05:13:00,
2013-08-17 22:18:00,65.0,57.6,25.71,West,278,0.0,3.0,77,0.00,,---,0.00,VWS V13.01,2013-08-18 05:18:00,
2013-08-17 22:23:00,64.5,57.5,25.71,WNW,283,0.0,4.0,78,0.00,,---,0.00,VWS V13.01,2013-08-18 05:23:00,
2013-08-17 22:28:00,63.9,57.6,25.71,WNW,283,2.0,4.0,80,0.00,,---,0.00,VWS V13.01,2013-08-18 05:28:00,
2013-08-17 22:33:00,63.6,57.3,25.71,West,280,0.0,4.0,80,0.00,,---,0.00,VWS V13.01,2013-08-18 05:33:00,
2013-08-17 22:38:00,63.4,57.5,25.71,WNW,293,0.0,4.0,81,0.00,,---,0.00,VWS V13.01,2013-08-18 05:38:00,
2013-08-17 22:43:00,63.1,57.2,25.71,WNW,293,0.0,4.0,81,0.00,,---,0.00,VWS V13.01,2013-08-18 05:43:00,
2013-08-17 22:48:00,62.9,57.0,25.71,WNW,292,0.0,4.0,81,0.00,,---,0.00,VWS V13.01,2013-08-18 05:48:00,
2013-08-17 22:53:00,62.7,56.8,25.71,WSW,240,1.0,5.0,81,0.00,,---,0.00,VWS V13.01,2013-08-18 05:53:00,
2013-08-17 22:58:00,62.5,56.9,25.71,WSW,257,0.0,5.0,82,0.00,,---,0.00,VWS V13.01,2013-08-18 05:58:00,
2013-08-17 23:03:00,62.2,56.6,25.71,WSW,254,0.0,5.0,82,0.00,,---,0.00,VWS V13.01,2013-08-18 06:03:00,
2013-08-17 23:08:00,62.0,56.5,25.71,WSW,254,0.0,2.0,82,0.00,,---,0.00,VWS V13.01,2013-08-18 06:08:00,
2013-08-17 23:13:00,61.8,56.2,25.71,West,268,0.0,3.0,82,0.00,,---,0.00,VWS V13.01,2013-08-18 06:13:00,
2013-08-17 23:18:00,61.6,56.4,25.71,West,268,0.0,3.0,83,0.00,,---,0.00,VWS V13.01,2013-08-18 06:18:00,
2013-08-17 23:23:00,61.5,56.3,25.71,West,268,0.0,3.0,83,0.00,,---,0.00,VWS V13.01,2013-08-18 06:23:00,
2013-08-17 23:28:00,61.5,56.3,25.71,West,268,0.0,3.0,83,0.00,,---,0.00,VWS V13.01,2013-08-18 06:28:00,
2013-08-17 23:33:00,61.5,56.3,25.71,West,268,0.0,3.0,83,0.00,,---,0.00,VWS V13.01,2013-08-18 06:33:00,
2013-08-17 23:38:00,61.5,56.3,25.71,West,272,0.0,3.0,83,0.00,,---,0.00,VWS V13.01,2013-08-18 06:38:00,
2013-08-17 23:43:00,61.6,56.4,25.71,West,273,0.0,3.0,83,0.00,,---,0.00,VWS V13.01,2013-08-18 06:43:00,
2013-08-17 23:48:00,61.6,56.4,25.71,West,273,0.0,3.0,83,0.00,,---,0.00,VWS V13.01,2013-08-18 06:48:00,
2013-08-17 23:53:00,61.6,56.4,25.71,West,273,0.0,3.0,83,0.00,,---,0.00,VWS V13.01,2013-08-18 06:53:00,
2013-08-17 23:58:00,61.6,56.4,25.71,West,273,0.0,3.0,83,0.00,,---,0.00,VWS V13.01,2013-08-18 06:58:00,